This demonstration page uses our WeatherBlox Daily Observations layout. Learn more.

Left ArrowRight Arrow

Hourly Observations for August 6, 2017

Temp ( °F °C ) Dew Point ( °F °C ) Humidity (%) Winds ( mph kmh ) Pressure ( in mb ) Visibility ( mi km ) Precip ( " mm )
12:52 am 00:52 Mostly Cloudy with Light Rain 66 18.9 61 16.1 84 84 SE 21 33 29.91 1013 10 16 0.01 0.25
1:45 am 01:45 Cloudy with Light Rain 65 18.3 62 16.7 90 90 NNE 18 30 29.94 1014 10 16 0.00 0.03
1:52 am 01:52 Cloudy with Light Rain 65 18.3 63 17.2 93 93 NE 12 19 29.96 1015 9 14 0.00 0.03
2:01 am 02:01 Cloudy with Nearby Thunderstorms 65 18.3 63 17.2 93 93 NE 13 20 29.94 1014 7 11 0.03 0.76
2:16 am 02:16 Cloudy with Heavy Rain 64 17.8 63 17.2 96 96 NNE 20 31 29.94 1014 3 5 0.14 3.56
2:35 am 02:35 Cloudy with Heavy Rain 63 17.2 63 17.2 100 100 NE 10 17 29.97 1015 2 3 0.30 7.62
2:47 am 02:47 Cloudy with Heavy Rain 63 17 63 17 100 100 ENE 14 22 29.97 1015 3 4 0.54 13.72
2:52 am 02:52 Cloudy with Heavy Rain 63 17.2 63 17.2 100 100 ENE 12 19 29.97 1015 3 5 0.56 14.22
3:52 am 03:52 Mostly Cloudy with Light Rain 63 17.2 62 16.7 97 97 E 14 22 29.93 1014 10 16 0.14 3.56
4:04 am 04:04 Partly Cloudy with Nearby Thunderstorms 63 17.2 62 16.7 97 97 E 13 20 29.94 1014 10 16 0.01 0.25
4:52 am 04:52 Cloudy with Heavy Rain 63 17.2 63 17.2 100 100 E 12 19 29.93 1014 4 6 0.16 4.06
5:52 am 05:52 Cloudy with Heavy Rain 64 17.8 63 17.2 96 96 E 15 24 29.89 1012 6 10 0.23 5.84
6:52 am 06:52 Mostly Cloudy with Light Rain 64 17.8 64 17.8 100 100 ESE 16 26 29.85 1011 9 14 0.28 7.11
7:52 am 07:52 Cloudy with Light Rain 65 18.3 64 17.8 97 97 ESE 14 22 29.85 1011 6 10 0.04 1.02
8:52 am 08:52 Cloudy with Light Rain 66 18.9 64 17.8 93 93 SE 13 20 29.88 1012 10 16 0.03 0.76
9:22 am 09:22 Cloudy with Rain 66 18.9 64 17.8 93 93 SE 13 20 29.88 1012 3 4 0.03 0.76
9:29 am 09:29 Cloudy with Light Rain 66 18.9 65 18.3 96 96 SE 13 20 29.88 1012 6 10 0.04 1.02
9:52 am 09:52 Cloudy with Light Rain 67 19.4 65 18.3 93 93 ESE 12 19 29.88 1012 10 16 0.05 1.27
10:52 am 10:52 Cloudy with Light Rain 67 19.4 65 18.3 93 93 ESE 12 19 29.89 1012 8 13 0.00 0.03
10:59 am 10:59 Cloudy with Light Rain 67 19.4 65 18.3 93 93 ESE 12 19 29.88 1012 10 16 0.00 0.03
11:13 am 11:13 Cloudy with Rain 67 19.4 65 18.3 93 93 SE 10 17 29.88 1012 3 4 0.02 0.51
11:22 am 11:22 Cloudy with Rain 66 18.9 65 18.3 96 96 SE 10 17 29.88 1012 3 5 0.04 1.02
11:38 am 11:38 Cloudy with Heavy Rain 66 18.9 65 18.3 96 96 SE 9 15 29.88 1012 2 3 0.12 3.05
11:52 am 11:52 Cloudy with Heavy Rain 67 19.4 66 18.9 97 97 ESE 9 15 29.88 1012 2 3 0.21 5.33
12:01 pm 12:01 Cloudy with Light Rain 68 20 67 19.4 96 96 ESE 9 15 29.88 1012 4 6 0.01 0.25
12:22 pm 12:22 Cloudy with Light Rain 68 20 66 18.9 93 93 ESE 13 20 29.88 1012 9 14 0.01 0.25
12:30 pm 12:30 Cloudy 68 20 67 19.4 96 96 SE 9 15 29.88 1012 10 16 0.01 0.25
12:52 pm 12:52 Cloudy 69 20.6 67 19.4 93 93 SE 9 15 29.87 1012 10 16 0.01 0.25
1:52 pm 13:52 Cloudy 70 21.1 67 19.4 90 90 E 7 11 29.87 1011 10 16 0.00 0.00
2:43 pm 14:43 Cloudy 70 21.1 67 19.4 90 90 ESE 5 7 29.85 1011 10 16 0.00 0.00
2:52 pm 14:52 Cloudy 71 21.7 67 19.4 87 87 Calm 29.86 1011 10 16 0.00 0.00
3:50 pm 15:50 Cloudy 70 21 68 20 94 94 N 6 9 29.88 1012 10 16 0.00 0.00
3:52 pm 15:52 Cloudy 70 21.1 68 20 93 93 N 6 9 29.88 1012 10 16 0.00 0.00
4:00 pm 16:00 Cloudy 71 21.7 68 20 90 90 N 6 9 29.88 1012 10 16 0.00 0.00
4:09 pm 16:09 Cloudy 71 21.7 68 20 90 90 N 5 7 29.88 1012 8 13 0.00 0.00
4:52 pm 16:52 Cloudy with Mist and Fog 70 21.1 68 20 93 93 NNE 7 11 29.88 1012 6 10 0.00 0.00
5:52 pm 17:52 Cloudy 71 21.7 68 20 90 90 NNE 6 9 29.88 1012 10 16 0.00 0.00
6:52 pm 18:52 Cloudy 71 21.7 68 20 90 90 NNE 7 11 29.88 1012 10 16 0.00 0.00
7:16 pm 19:16 Cloudy 70 21.1 68 20 93 93 NE 8 13 29.88 1012 10 16 0.00 0.00
7:52 pm 19:52 Cloudy 70 21.1 68 20 93 93 NNE 8 13 29.90 1013 10 16 0.00 0.00
8:29 pm 20:29 Cloudy 69 20.6 68 20 96 96 NNE 3 6 29.91 1013 10 16 0.00 0.00
8:52 pm 20:52 Cloudy 69 20.6 68 20 96 96 N 6 9 29.91 1013 10 16 0.00 0.00
9:08 pm 21:08 Cloudy 69 20.6 68 20 96 96 N 6 9 29.91 1013 10 16 0.00 0.00
9:52 pm 21:52 Mostly Cloudy 68 20 67 19.4 96 96 NE 6 9 29.93 1013 10 16 0.00 0.00
10:12 pm 22:12 Partly Cloudy 68 20 67 19.4 96 96 NE 3 6 29.94 1014 10 16 0.00 0.00
10:19 pm 22:19 Mostly Cloudy 68 20 68 20 100 100 NE 6 9 29.94 1014 10 16 0.00 0.00
10:34 pm 22:34 Mostly Cloudy 68 20 68 20 100 100 N 5 7 29.94 1014 10 16 0.00 0.00
10:48 pm 22:48 Cloudy 68 20 68 20 100 100 N 6 9 29.94 1014 10 16 0.00 0.00
10:52 pm 22:52 Cloudy 68 20 68 20 100 100 N 6 9 29.94 1014 10 16 0.00 0.00
11:16 pm 23:16 Cloudy 68 20 68 20 100 100 N 6 9 29.94 1014 10 16 0.00 0.00
11:52 pm 23:52 Cloudy 68 20 68 20 100 100 NNE 6 9 29.96 1014 10 16 0.00 0.00

Powered by AerisWeather